map of KPOV home
KPOV - Airport
Location
City:  Ravenna, Ohio, United States
Name:Portage County Airport
ICAO:KPOV
FAA LID:POV

Details
Type:Airport (Airfield)
Use:Public/Civil
Latitude:4112'37"N (41.210182)
Longitude:8115'06"W (-81.251624)
Datum:WGS 1984
Elevation:1197 ft (365 m)
Variation:8.60W (WMM2015 magnetic declination)
-0.02 annual change
Runways:1
Longest:3499 × 75 ft (1066 × 23 m), paved

Time
Time Zone:UTC-5 (DST-4)
Local Time:

Weather
METAR:KPOV 230407Z AUTO 00000KT 10SM SCT037 19/18 A2989 RMK AO2 T01850176

Related Locations
Nearby:
Farthest:MQZ: 11414 mi / 18369 km
Margaret River [Margaret River Airport], WA, AU

Find:

   beyond  
but within

Other Information
Maps:
NOTAMs:
Links:
Sources:

  
flag of United States
flag of Ohio
  

Sectional Chart

Flight Planning
at skyvector.com

Satellite Image

Google Maps Satellite view

 

Copyright © 2004-2017 Karl L. Swartz. All rights reserved.
The Great Circle Mapper name and logo are trademarks of the Great Circle Mapper.
All other trademarks mentioned herein belong to their respective owners.
Please see credits for attibutions and further copyright information.

  Follow gcmap on Facebook Follow gcmap on Twitter Follow gcmap on Google+ GCmap on LinkedIn

hCard Microformat

Geo Microformat